Flag for Grenada Weather past 2 weeks in Saint George's, Grenada

Now
75 °F

Passing clouds.


Feels Like: 76 °F
Forecast: 73 / 79 °F
Wind: 14 mph from East

Location: Point Salines Airport

Current Time: Mar 6, 2015 at 5:15:34 AM

Latest Report: Mar 6, 2015 at 5:00 AM


Visibility: N/A

Pressure: 29.95 "Hg

Humidity: 78%

Dew point: 68 °F

Location of Saint George'sLocation

Historic Weather in Saint George's — Graph

°F

Saint George's temperature yesterday

Maximum temperature yesterday: 86 °F (at 11:00 AM)
Minimum temperature yesterday: 77 °F (at 12:00 AM)
Average temperature yesterday: 80 °F

Past Weeks' High & Low Weather Summary

 TemperatureHumidityPressure
High86 °F (Feb 22, 12:00 PM)94% (Feb 20, 10:00 AM)30.04 "Hg (Feb 20, 10:00 AM)
Low73 °F (Feb 22, 5:00 AM)55% (Mar 5, 2:00 PM)29.86 "Hg (Feb 19, 3:00 PM)
Average80 °F77%29.95 "Hg
* Reported Feb 19 2:00 AM — Mar 6 2:00 AM, Saint George's, Weather by CustomWeather, © 2015

Note: Actual official high and low records may vary slightly from our data, if they occured in-between our weather recording intervals... More about our weather records

Advertising

Saint George's weather history for previous 24 hours

 ConditionsComfort  
Time TempWeatherWind HumidityBarometerVisibility
2:00 AM
Fri, Mar 6
77 °FPassing clouds.21 mph79%29.95 "HgN/A
11:00 PM
Thu, Mar 5
77 °FPassing clouds.17 mph79%30.01 "HgN/A
10:00 PM79 °FSprinkles. Passing clouds.17 mph74%30.01 "HgN/A
9:00 PM79 °FPassing clouds.18 mph74%29.98 "HgN/A
8:00 PM79 °FPassing clouds.18 mph74%29.95 "HgN/A
7:00 PM79 °FPassing clouds.20 mph74%29.95 "HgN/A
6:00 PM81 °FPassing clouds.17 mph70%29.92 "HgN/A
5:00 PM82 °FPassing clouds.15 mph66%29.92 "HgN/A
4:00 PM84 °FPassing clouds.20 mph62%29.92 "HgN/A
3:00 PM84 °FPassing clouds.20 mph62%29.92 "HgN/A
2:00 PM86 °FPassing clouds.24 mph55%29.92 "HgN/A
1:00 PM86 °FScattered clouds.22 mph59%29.95 "HgN/A
12:00 PM86 °FScattered clouds.31 mph59%29.98 "HgN/A
11:00 AM86 °FPassing clouds.29 mph59%30.01 "HgN/A
10:00 AM81 °FScattered clouds.21 mph70%30.01 "HgN/A
9:00 AM82 °FPassing clouds.17 mph70%30.01 "HgN/A
8:00 AM81 °FScattered clouds.17 mph70%29.98 "HgN/A
7:00 AM79 °FScattered clouds.15 mph79%29.98 "HgN/A
6:00 AM77 °FPassing clouds.14 mph79%29.95 "HgN/A
5:00 AM77 °FSprinkles. Passing clouds.15 mph83%29.92 "HgN/A
Weather by CustomWeather, © 2015

See weather overviewHow to use our weather pages